Tracking 18624 objects as of 30-April-2017
HD Live streaming from Space Station
objects crossing your sky now

ASTRA 1D

Track ASTRA 1D now!
ASTRA 1D is classified as:


NORAD ID: 23331
Int'l Code: 1994-070A
Perigee: 35,777.4 km
Apogee: 35,810.9 km
Inclination: 7.5 °
Period: 1,436.1 minutes
Semi major axis: 42165 km
RCS: 75.2376 m2 (large)
Launch date: November 1, 1994
Source: Luxembourg (LUXE)
Launch site: FRENCH GUIANA (FRGUI)

Primarily backup for Astra 1B and 1C; 18 Ku-band transponders; continental Europe.
Your satellite tracking list
Your tracking list is empty





NASA's NSSDC Master Catalog

Two Line Element Set (TLE):
1 23331U 94070A   17118.20150580 -.00000297 +00000-0 +00000-0 0  9990
2 23331 007.4888 049.6407 0003973 338.2202 213.7309 01.00270241082823
Source of the keplerian elements: AFSPC